Вернуться в каталог

STARLINK-3703

АктивенСвязьVLEO
NORAD 52101·PAYLOAD·🇺🇸 United States

Запущен Mar 19, 2022 с Cape Canaveral Space Force Station

Loading…

Ближайшие Пролёты (ближайшие 24 часа)

TLE

СвежийSource: CelesTrak SupGP

Эпоха: Sep 15, 2026, 01:59 UTC

1 52101C 22029P   26258.08312500  .00075799  00000+0  22378-2 0  2584
2 52101  53.1587 307.3780 0001260  84.6071   6.0110 15.34376458    18

Отслеживайте STARLINK-3703 в реальном времени с AllMySat

Download on the App Store